Regional Weather Roundup
Issued by NWS Sioux Falls, SD

Home | Current Version | Previous Version | Graphics & Text | Print | Product List | Glossary On
Versions: 1 2 3 4 5 6 7 8 9 10 11 12 13 14 15 16 17 18 19 20 21 22 23 24 25 26 27 28 29 30 31 32 33 34 35 36 37 38 39 40 41 42 43 44 45 46 47 48 49 50
000
ASUS43 KFSD 191710
RWRFSD

WEATHER ROUNDUP FOR SE SOUTH DAKOTA/SW MINNESOTA/NW IOWA
NATIONAL WEATHER SERVICE SIOUX FALLS SD
1200 PM CDT THU OCT 19 2017

NOTE: "FAIR" INDICATES FEW OR NO CLOUDS BELOW 12,000 FEET WITH NO
SIGNIFICANT WEATHER AND OR OBSTRUCTIONS TO VISIBILITY.


SDZ038>040-050-052>070-191800-
SOUTHEAST SOUTH DAKOTA

CITY           SKY/WX    TMP DP  RH WIND       PRES   REMARKS
BROOKINGS      SUNNY     62  39  42 S20G28    29.97F
CHAMBERLAIN    SUNNY     69  42  37 S15       29.91F
HURON          SUNNY     63  40  42 S16G23    29.93F
MADISON        FAIR      63  43  48 S17G25    30.00S
MITCHELL       SUNNY     66  43  43 S15       29.97F
SIOUX FALLS    MOSUNNY   66  45  46 S14       30.02F
WINNER         FAIR      69  41  36 S22G31    29.90F
YANKTON        SUNNY     68  50  52 S14       30.01F
$$

MNZ071-072-080-081-089-090-097-098-191800-
SOUTHWEST MINNESOTA

CITY           SKY/WX    TMP DP  RH WIND       PRES   REMARKS
FAIRMONT       SUNNY     62  32  32 S18       30.09S
JACKSON        SUNNY     63  30  29 S15G21    30.08F
LUVERNE        SUNNY     63  34  34 S13       30.05S
MARSHALL       SUNNY     68  37  32 S20G26    29.99F
MONTEVIDEO     SUNNY     68  37  32 SW14G22   29.97F
PIPESTONE      SUNNY     64  36  34 S16G22    30.02F
REDWOOD FALLS  SUNNY     68  31  25 S23       30.01F
TRACY          SUNNY     66  37  33 S18G24    30.01F
WORTHINGTON    SUNNY     65  35  33 S17G23    30.05F
$$

IAZ001>003-012>014-020>022-031-032-NEZ013-014-SDZ071-191800-
NORTHWEST IOWA

CITY           SKY/WX    TMP DP  RH WIND       PRES   REMARKS
CHEROKEE       SUNNY     67  39  36 S12       30.08S
DENISON        SUNNY     68  43  40 SE13      30.10S
LE MARS        SUNNY     68  43  40 S14G20    30.05F
ORANGE CITY    SUNNY     66  43  42 S10G18    30.06S
SHELDON        SUNNY     66  37  34 S13G21    30.05S
SIOUX CITY     SUNNY     65  46  50 S13G20    30.06F
SPENCER        SUNNY     65  36  34 S17       30.08F
STORM LAKE     SUNNY     66  34  30 SE12      30.09S
$$

ABBREVIATIONS USED IN REMARKS
   TC - TEMPERATURE IN CELSIUS
  WCI - WIND CHILL INDEX
   HX - HEAT INDEX
  VSB - VISIBILITY





USA.gov is the U.S. government's official web portal to all federal, state and local government web resources and services.